Location: Kennington
(51.1500°N, 0.8833°E)
Time: 11:26:56
(UTC+00:00)

CSL-04 DEB - Pass Details

Date: 21 September 2020
Orbit: 545 x 628 km, 98.8° (Epoch: 30 October)

Event Time Altitude Azimuth Distance (km) Brightness Sun altitude
Rises 03:35:05 0° 165° (SSE) 2,869 7.9 -19.9°
Reaches altitude 10° 03:37:14 10° 166° (SSE) 1,979 7.0 -19.6°
Maximum altitude 03:41:33 83° 254° (WSW) 637 4.4 -19.0°
Drops below altitude 10° 03:45:58 10° 343° (NNW) 2,019 7.3 -18.3°
Sets 03:48:11 0° 345° (NNW) 2,933 8.1 -18.0°
